Location: Larne
(54.8508°N, 5.8183°W)
Time: 03:45:38
(UTC+01:00)

ISS - Visible Passes

Search period start: 26 September 2022 00:00
Search period end: 06 October 2022 00:00
Orbit: 414 x 417 km, 51.6° (Epoch: 25 September)

Date Brightness Start Highest point End Pass type
(mag) Time Alt. Az. Time Alt. Az. Time Alt. Az.
26 Sep -3.2 20:18:51 10° W 20:22:06 47° S 20:24:22 18° ESE visible
26 Sep -1.6 21:55:36 10° W 21:57:15 20° WSW 21:57:15 20° WSW visible
27 Sep -2.6 21:06:52 10° W 21:09:53 31° SSW 21:10:24 29° S visible
28 Sep -2.7 20:18:09 10° W 20:21:18 37° SSW 20:23:34 16° SE visible
28 Sep -1.1 21:55:27 10° WSW 21:56:27 13° SW 21:56:27 13° SW visible
29 Sep -1.8 21:06:24 10° WSW 21:08:55 20° SSW 21:09:38 18° SSW visible
30 Sep -2.0 20:17:31 10° W 20:20:21 26° SSW 20:22:52 12° SSE visible
01 Oct -1.0 21:06:41 10° WSW 21:07:44 11° SW 21:08:47 10° SSW visible
02 Oct -1.2 20:17:08 10° WSW 20:19:14 16° SSW 20:21:19 10° S visible
03 Oct -1.5 19:28:03 10° W 19:30:39 21° SSW 19:33:15 10° SSE visible
05 Oct -0.8 19:28:01 10° WSW 19:29:21 12° SW 19:30:41 10° SSW visible
